1376873432135,0.000163570
1376873492135,0.000165292
1376873552135,0.000163769
1376873612135,0.000167437
1376873672135,0.000162572
1376877032145,0.000168462
1376877092145,0.000165210
1376877152145,0.000167099
1376877212145,0.000166076
1376877272145,0.000163839
1376880632156,0.000167535
1376880692156,0.000164541
1376880752156,0.000165934
1376880812156,0.000166326
1376880872156,0.000164254
1376884232166,0.000165486
1376884292166,0.000165541
1376884352166,0.000166851
1376884412166,0.000166015
1376884472166,0.000161096
1376887832176,0.000166585
1376887892176,0.000167305
1376887952176,0.000167218
1376888012176,0.000168385
1376888072176,0.000164099
1376891432186,0.000165995
1376891492186,0.000166574
1376891552186,0.000165673
1376891612186,0.000165809
1376891672186,0.000161555
1376895032196,0.000166675
1376895092196,0.000165355
1376895152196,0.000166190
1376895212196,0.000165019
1376895272196,0.000163923
1376898632206,0.000166643
1376898692206,0.000165494
1376898752206,0.000163718
1376898812206,0.000165844
1376898872206,0.000165106
1376902232216,0.000165089
1376902292216,0.000164526
1376902352216,0.000165264
1376902412216,0.000166415
1376902472216,0.000162869
1376905832227,0.000164196
1376905892227,0.000166415
1376905952227,0.000167078
1376906012227,0.000165918
1376906072227,0.000165960
1376909432237,0.000168060
1376909492237,0.000167913
1376909552237,0.000169078
1376909612237,0.000169892
1376909672237,0.000167633
1376913032248,0.000170127
1376913092248,0.000168144
1376913152248,0.000169031
1376913212248,0.000167850
1376913272248,0.000165101
1376916632258,0.000167804
1376916692258,0.000168456
1376916752258,0.000166773
1376916812258,0.000168081
1376916872258,0.000166109
1376920232269,0.000169116
1376920292269,0.000166465
1376920352269,0.000168254
1376920412269,0.000167771
1376920472269,0.000166327
1376923832280,0.000168379
1376923892280,0.000166777
1376923952280,0.000167449
1376924012280,0.000168781
1376924072280,0.000163769
1376927432291,0.000169134
1376927492291,0.000168891
1376927552291,0.000170332
1376927612291,0.000167475
1376927672291,0.000167423
1376931032303,0.000170353
1376931092303,0.000169295
1376931152303,0.000169394
1376931212303,0.000168949
1376931272303,0.000165487
1376934632314,0.000168798
1376934692314,0.000168171
1376934752314,0.000169035
1376934812314,0.000169123
1376934872314,0.000170171
1376938232326,0.000171274
1376938292326,0.000171206
1376938352326,0.000169261
1376938412326,0.000168988
1376938472326,0.000165535
1376941832338,0.000171469
1376941892338,0.000171549
1376941952338,0.000171552
1376942012338,0.000170218
1376942072338,0.000168210
1376945432350,0.000171298
1376945492350,0.000171161
1376945552350,0.000173514
1376945612350,0.000171427
1376945672350,0.000168685
1376949032361,0.000171991
1376949092361,0.000172306
1376949152361,0.000174705
1376949212361,0.000175294
1376949272361,0.000172692
1376952632372,0.000171327
1376952692372,0.000170069
1376952752372,0.000169846
1376952812372,0.000171199
1376952872372,0.000166127
1376956232383,0.000172761
1376956292383,0.000174570
1376956352383,0.000176091
1376956412383,0.000173539
1376956472383,0.000171155
